If you wish to contribute or participate in the discussions about articles you are invited to join SKYbrary as a registered user

 Actions

Anaktuvuk Pass Airport

From SKYbrary Wiki

PAKP
Airport
ICAO: PAKP – IATA: AKP
Summary
Name Anaktuvuk Pass Airport
Region North America
Territory Alaska US.gif
Location Anaktuvuk Pass, Alaska
Serving Anaktuvuk Pass
Elevation 640.69 m
2,102 ft
2,102 ft640.69 m
Type medium airport
Coordinates 68° 8' 0.96" N, 151° 44' 34.80" W
Runways
Designator Length Width Surface ROPS
2/20 1463 m4,799.869 ft
30 m98.425 ft
GRAVEL-G /


METAR
Observation PAKP 161956Z AUTO 05011KT 10SM CLR 14/03 A2990 RMK AO2 SLP145 T01440028
Station Anaktuvuk Pass, Anaktuvuk Pass Airport
Date/Time 16 June 2019 19:56:00
Wind direction 50°
Wind speed 11 kts
Lowest cloud amount n/a
Temperature 14.4°C
Dew point 2.8°C
Humidity 45%
QNH hPa
Weather condition n/a

Maps

Terrain

Loading map...

Airport Layout

Loading map...


Accidents & Serious Incidents at or in vicinity of PAKP

None on SKYbrary